Regional Weather Roundup
Issued by NWS

Home | Current Version | Previous Version | Text Only | Print | Product List | Glossary On
Versions: 1 2 3 4 5 6 7 8 9 10 11 12 13 14 15 16 17 18 19 20 21 22 23 24 25 26 27 28
000
ASUS45 KGTF 050310
RWRMT
MONTANA HOURLY WEATHER ROUNDUP
NATIONAL WEATHER SERVICE GREAT FALLS MT
900 PM MDT MON MAY 04 2015

NOTE: "FAIR" INDICATES FEW OR NO CLOUDS BELOW 12000 FEET WITH NO
SIGNIFICANT WEATHER AND/OR OBSTRUCTIONS TO VISIBILITY.

MTZ001>007-043-050400-
WEST OF THE DIVIDE

CITY           SKY/WX    TMP DP  RH WIND       PRES   REMARKS
KALISPELL      CLEAR     61  30  31 CALM      29.73S
MISSOULA       MOCLDY    65  34  31 NW3       29.76S
BUTTE          CLOUDY    55  29  36 SE5       29.88R
DEER LODGE       N/A     55  30  38 W6        29.87R
EUREKA           N/A     64  27  24 E6        29.72S
HAMILTON         N/A     64  34  32 E9        29.78S
LIBBY            N/A     61  30  31 SE5       29.73S
$$

MTZ008-052>055-050400-
SOUTHWEST MONTANA

CITY           SKY/WX    TMP DP  RH WIND       PRES   REMARKS
BOZEMAN        CLEAR     51  37  58 E6        29.83S
DILLON         MOCLDY    63  28  26 S7        29.85R
$$

MTZ009-010-012-014-046-048-049-054-050400-
EAST SLOPES AND CENTRAL MONTANA

CITY           SKY/WX    TMP DP  RH WIND       PRES   REMARKS
CUT BANK       CLEAR     55  21  26 W10       29.79S
GREAT FALLS    CLEAR     58  21  24 W5        29.77S
MALMSTROM AFB  CLEAR     65  30  27 S6        29.77S
HELENA         CLEAR     68  31  25 S6        29.80R
$$

MTZ011-013-016-021-045-047-050-051-050400-
NORTH CENTRAL MONTANA

CITY           SKY/WX    TMP DP  RH WIND       PRES   REMARKS
HAVRE          CLEAR     62  44  51 E6        29.74F
LEWISTOWN      PTCLDY    58  42  55 E9        29.86F
CHINOOK          N/A     66  41  39 SE5       29.77R
FORT BENTON      N/A     66  39  37 SE8G16    29.76S
$$

MTZ017>020-022>042-056>058-061-062-050400-
EASTERN PLAINS

CITY           SKY/WX    TMP DP  RH WIND       PRES   REMARKS
BAKER          CLEAR     51  32  48 SE23      30.03S
BILLINGS       PTCLDY    65  39  38 S5        29.86R
GLASGOW        CLEAR     61  40  45 SE16      29.87S
LIVINGSTON     CLEAR     57  38  48 E7        29.85R
MILES CITY     CLEAR     59  39  47 SE17G29   29.92R
SIDNEY         CLEAR     55  32  41 SE15G22   30.02S
WOLF POINT     CLEAR     61  38  42 SE7       29.94R
BIG TIMBER       N/A     59  43  55 E6        29.88R
FORSYTH          N/A     64  41  42 E14       29.88R
PLENTYWOOD       N/A     59  39  47 SE17      30.00R
POPLAR           N/A     59  36  41 SE14      29.97R
$$

REGIONAL REPORTS...DAKOTAS

CITY           SKY/WX    TMP DP  RH WIND       PRES   REMARKS
WILLISTON      CLEAR     59  37  44 S16G23    30.04R
MINOT          CLEAR     60  29  30 S12       30.08R
DICKINSON      CLEAR     48  32  53 S13       30.08S
BEACH          FAIR      48  32  53 SE14      30.05S
CROSBY         FAIR      59  39  47 S16       30.03R
WATFORD CITY   FAIR      55  36  47 N6        30.04R
BISMARCK       PTCLDY    49  30  48 SE6       30.13R
GRAND FORKS    CLEAR     56  27  32 SE7       30.16R
FARGO          CLEAR     59  25  27 S3        30.17R
BUFFALO SD       N/A     50  31  48 SE13      30.01S
RAPID CITY     CLOUDY    52  39  61 S6        30.11R
$$

REGIONAL REPORTS...WYOMING/IDAHO/WASHINGTON

CITY           SKY/WX    TMP DP  RH WIND       PRES   REMARKS
GILLETTE       PTCLDY    49  36  61 SE17      30.02R
SHERIDAN       MOCLDY    56  44  64 S6        29.92S
BUFFALO WY     CLOUDY    57  43  59 S10       30.02R
CODY           PTCLDY    57  45  62 S3        29.93S
YELLOWSTONE LA   N/A     48  32  53 CALM      30.06R
IDAHO FALLS    CLOUDY    65  41  41 W10       29.88R
SALMON           N/A     66  32  28 SW6       29.78S
BOISE          MOCLDY    77  33  20 W3        29.73R
SPOKANE        PTCLDY    68  29  23 SW9       29.74S
$$

REGIONAL REPORTS...ALBERTA

CITY           SKY/WX    TMP DP  RH WIND       PRES   REMARKS
EDMONTON       CLEAR     50  32  50 E22G29    29.84S
CALGARY        PTCLDY    57  25  28 E13       29.72F
LETHBRIDGE     PTCLDY    61  27  27 S3        29.74R
MEDICINE HAT   CLEAR     66  34  30 N6        29.73S
$$

REGIONAL REPORTS...SASKATCHEWAN

CITY           SKY/WX    TMP DP  RH WIND       PRES   REMARKS
SWIFT CURRENT  CLEAR     59  41  51 E8        29.80S
REGINA         PTCLDY    59  32  36 SE16      29.92S
SASKATOON      PTCLDY    55  30  38 E17G24    29.93R
$$



USA.gov is the U.S. government's official web portal to all federal, state and local government web resources and services.